Zurück zum Katalog

STARLINK-11601

AktivKommunikationVLEO
NORAD 63110·PAYLOAD·🇺🇸 United States

Gestartet Feb 27, 2025 von Cape Canaveral Space Force Station

Loading…

Nächste Überflüge (nächste 24 Stunden)

TLE

AktuellSource: CelesTrak SupGP

Epoche: Sep 14, 2026, 23:03 UTC

1 63110C 25039G   26257.96090278 -.00025963  00000+0 -20163-3 0  2571
2 63110  43.0004 175.9684 0001542 264.6607  74.5450 15.70854070    10

Verfolge STARLINK-11601 in Echtzeit mit AllMySat

Download on the App Store